OBJECT H

Satellite information

Favourite Embed

Satellite Type and Status

UNKNOWNIN ORBIT

Key statistics

Satellite OBJECT H at a glance.

Uptime

2976

Days in orbit

Revolutions

≈ 15.0

Per day

Orbit

SSO

Sun Synchronous Orbit

Inclination

97.4

Latest

Satellite identification and parameters

Extended collection of information and parameters for OBJECT H.

Object identification

Identified? True

Debris? False

Object name: OBJECT H

International designator: 2017-042H

Object number (NORAD): 42832

Object ID (CCSDS): 42832

Country: TO BE DETERMINED/UNKNOWN (TBD)

Current information (Y/N): Y

RCS size: SMALL

Orbital parameters

Period: 95.701 minutes

Inclination: 97.3905 deg

SMA: 6930.598 km

Apoapsis: 560.137 km

Periapsis: 544.788 km

RAAN: 55.5538 deg

Eccentricy: 0.00110735

Argument of periapsis: 13.9777 deg

Mean anomaly: 346.1754 deg

Mean motion: 15.04688928 rev/day

Mean motion (dot): 0.00006295 rev/day2

B* drag term: 0.00045078451 1/REarth

Two-line elements (TLE)

Creation date: Sept. 6, 2025, 2:09 a.m.

Reference frame: TEME

Reference center: EARTH

Epoch: Sept. 5, 2025, 10:26 p.m. UTC

TLE line 0: 0 OBJECT H

TLE line 1: 1 42832U 17042H 25248.93493902 .00006295 00000-0 45078-3 0 9992

TLE line 2: 2 42832 97.3905 55.5538 0011073 13.9777 346.1754 15.04688928444149

Live tracking on map

Real-time ground track for satellite OBJECT H.

In-orbit conjunctions

There are no conjunctions computed for OBJECT H, at the moment. Check back to stay up to date, as we update our databases every day.

Go to all conjunctions

Associated space launch

Kanopus-V-IK is a small Russian remote sensing satellite for monitoring wildfires. Weighing about 473 kg, it is intended for 5 years of operation in a 510 km sun-synchronous orbit.

OBJECT H was lifted into orbit during the mission ‘Soyuz-2.1a/Fregat | Kanopus-V-IK’, on board a Soyuz 2.1a/Fregat-M space rocket.

The launch took place on July 14, 2017, 6:36 a.m. from 31/6.

For more information about the launch, click the button.

Launch to space Soyuz-2.1a/Fregat | Kanopus-V-IK
Soyuz-2.1a/Fregat | Kanopus-V-IK

Agency: N/A

Status: Launch was a Partial Failure

Launch date: July 14, 2017, 6:36 a.m. UTC

Rocket: Soyuz 2.1a/Fregat-M

Launch pad: 31/6

Location: Baikonur Cosmodrome, Republic of Kazakhstan

...

Latest news about this satellite

There are no fresh news available about this satellite. Check back as we update our databases every day.


Newsletter sign-up

Weekly statistics, charts and insights to help you stay on top of the space industry.